Location: Neuvy Saint Sepulchre
(46.5953°N, 1.8122°E)
Time: 07:29:19
(UTC+02:00)

ISS - Pass Details

Date: 16 July 2021
Orbit: 419 x 421 km, 51.6° (Epoch: 03 August)

Event Time Altitude Azimuth Distance (km) Brightness Sun altitude
Rises 00:29:44 0° 267° (W) 2,367 0.3 -19.1°
Reaches altitude 10° 00:31:54 10° 275° (W) 1,504 -0.6 -19.3°
Maximum altitude 00:35:08 41° 347° (NNW) 627 -2.4 -19.5°
Drops below altitude 10° 00:38:21 10° 59° (ENE) 1,506 -0.8 -19.6°
Sets 00:40:32 0° 67° (ENE) 2,371 0.1 -19.8°
